Weather History for KPHD - September, 2014

Change the Weather History Date:

Saturday, September 6, 2014

  Actual Average Record
Temperature  
Mean Temperature 68 °F 68 °F  
Max Temperature 79 °F 79 °F 91 °F (1985)
Min Temperature 56 °F 56 °F 39 °F (1962)
Degree Days  
Heating Degree Days 0 1  
Month to date heating degree days 0 6  
Since 1 July heating degree days 32 16  
Cooling Degree Days 3 4  
Month to date cooling degree days 49 24  
Year to date cooling degree days 598 646  
Growing Degree Days 17 (Base 50)    
Moisture  
Dew Point 63 °F    
Average Humidity 87    
Maximum Humidity 100    
Minimum Humidity 74    
Precipitation  
Precipitation 0.02 in 0.13 in 1.19 in (1975)
Month to date precipitation 0.25 0.76  
Year to date precipitation 32.37 27.71  
Sea Level Pressure  
Sea Level Pressure 30.05 in    
Wind  
Wind Speed 3 mph (NNW)    
Max Wind Speed 18 mph    
Max Gust Speed 24 mph    
Visibility 9 miles    
Events Rain    
T = Trace of Precipitation, MM = Missing Value Source: NWS Daily Summary

Daily Weather History Graph

Daily Weather History Graph

Search for Another Location

Airport or City:

Trip Planner

Search our weather history database for the weather conditions in past years. The results will help you decide how hot, cold, wet, or windy it might be!

Date:

Astronomy

Sep. 06, 2014 Rise Set
Actual Time 6:57 AM EDT 7:49 PM EDT
Civil Twilight 6:30 AM EDT 8:17 PM EDT
Nautical Twilight 5:57 AM EDT 8:50 PM EDT
Astronomical Twilight 5:22 AM EDT 9:24 PM EDT
Moon 6:04 PM EDT (9/6) 3:57 AM EDT (9/6)
Length of Visible Light 13h 47m
Length of Day
12h 51m
Waxing Gibbous, 91% of the Moon is Illuminated
Sep 6
Waxing Gibbous
Sep 8
Full
Sep 15
Last Quarter
Sep 24
New
Oct 1
First Quarter

Hourly Weather History & Observations

Time (EDT) Temp. Dew Point Humidity Pressure Visibility Wind Dir Wind Speed Gust Speed Precip Events Conditions
12:53 AM 75.9 °F 70.0 °F 82% 30.00 in 10.0 mi SSW 4.6 mph - N/A   Clear
1:53 AM 75.9 °F 70.0 °F 82% 29.99 in 10.0 mi Calm Calm - N/A   Scattered Clouds
2:53 AM 73.9 °F 66.9 °F 79% 30.00 in 10.0 mi North 4.6 mph - N/A   Partly Cloudy
4:53 AM 68.0 °F 66.9 °F 96% 29.97 in 10.0 mi Calm Calm - N/A   Clear
5:53 AM 70.0 °F 68.0 °F 93% 29.97 in 10.0 mi Calm Calm - N/A   Clear
6:53 AM 68.0 °F 66.0 °F 93% 29.99 in 10.0 mi Calm Calm - N/A   Clear
8:53 AM 73.0 °F 69.1 °F 87% 30.02 in 10.0 mi WNW 3.5 mph - N/A   Clear
10:53 AM 75.9 °F 66.9 °F 74% 30.02 in 10.0 mi NW 5.8 mph - N/A   Overcast
11:53 AM 77.0 °F 68.0 °F 74% 30.01 in 10.0 mi WNW 5.8 mph - N/A   Mostly Cloudy
12:53 PM 75.9 °F 68.0 °F 76% 30.01 in 10.0 mi WNW 6.9 mph - N/A   Overcast
1:53 PM 73.9 °F 66.0 °F 76% 30.01 in 10.0 mi WNW 6.9 mph - N/A   Overcast
2:02 PM 73.0 °F 66.0 °F 79% 30.04 in 10.0 mi NNW 17.3 mph 23.0 mph N/A   Overcast
2:19 PM 68.0 °F 63.0 °F 84% 30.06 in 10.0 mi NNW 11.5 mph - 0.00 in   Overcast
2:53 PM 64.9 °F 61.0 °F 87% 30.05 in 10.0 mi North 9.2 mph - 0.00 in   Overcast
3:42 PM 64.0 °F 62.1 °F 93% 30.05 in 2.5 mi North 5.8 mph - 0.01 in Rain Light Rain
3:53 PM 64.0 °F 62.1 °F 93% 30.05 in 4.0 mi North 5.8 mph - 0.02 in Rain Light Rain
4:07 PM 64.9 °F 62.1 °F 90% 30.05 in 10.0 mi North 6.9 mph - 0.00 in   Overcast
4:27 PM 64.9 °F 62.1 °F 90% 30.05 in 10.0 mi North 4.6 mph - 0.00 in   Overcast
4:53 PM 64.9 °F 61.0 °F 87% 30.04 in 10.0 mi North 6.9 mph - 0.00 in   Overcast
5:53 PM 64.0 °F 57.9 °F 80% 30.06 in 10.0 mi North 4.6 mph - 0.00 in Rain Light Rain
6:53 PM 64.0 °F 59.0 °F 84% 30.08 in 10.0 mi Calm Calm - 0.00 in   Overcast
7:53 PM 63.0 °F 60.1 °F 90% 30.09 in 10.0 mi Calm Calm - N/A   Partly Cloudy
8:53 PM 63.0 °F 60.1 °F 90% 30.11 in 10.0 mi Calm Calm - N/A   Mostly Cloudy
9:03 PM 63.0 °F 60.1 °F 90% 30.12 in 10.0 mi Calm Calm - N/A   Scattered Clouds
9:53 PM 61.0 °F 59.0 °F 93% 30.12 in 10.0 mi Calm Calm - N/A   Clear
10:53 PM 59.0 °F 57.9 °F 96% 30.13 in 10.0 mi Calm Calm - N/A   Partly Cloudy
11:34 PM 57.9 °F 57.0 °F 97% 30.15 in 1.8 mi Calm Calm - N/A   Scattered Clouds
11:53 PM 57.0 °F 57.0 °F 100% 30.14 in 1.2 mi Calm Calm - N/A   Clear
11:57 PM 57.0 °F 55.9 °F 96% 30.15 in 3.0 mi Calm Calm - N/A   Clear